Guam Agana, GU

7:14 AM ChST on November 17, 2019 (GMT +1000)
Guam International

Weather History for PGUM - October, 2019

Change the Weather History Date:

Wednesday, October 23, 2019

  Actual Average Record
Temperature  
Mean Temperature 82 °F -  
Max Temperature 87 °F 85 °F 93 °F (2018)
Min Temperature 78 °F 75 °F 73 °F (2011)
Cooling Degree Days 18    
Growing Degree Days 32 (Base 50)    
Moisture  
Dew Point 75 °F    
Average Humidity 79    
Maximum Humidity 90    
Minimum Humidity 65    
Precipitation  
Precipitation 0.00 in - - ()
Sea Level Pressure  
Sea Level Pressure 29.82 in    
Wind  
Wind Speed 5 mph ()    
Max Wind Speed 9 mph    
Max Gust Speed -    
Visibility 10.0 miles    
Events      
Averages and records for this station are not official NWS values.
T = Trace of Precipitation, MM = Missing Value Source: Averaged Metar Reports

Daily Weather History Graph

Daily Weather History Graph

Search for Another Location

Airport or City:

Astronomy

Oct. 23, 2019 Rise Set
Actual Time 6:12 AM ChST 5:57 PM ChST
Civil Twilight 5:50 AM ChST 6:19 PM ChST
Nautical Twilight 5:25 AM ChST 6:44 PM ChST
Astronomical Twilight 5:01 AM ChST 7:09 PM ChST
Moon 1:04 AM ChST (10/23) 2:09 PM ChST (10/23)
Length of Visible Light 12h 28m
Length of Day
11h 45m
Waning Crescent, 33% of the Moon is Illuminated
Oct 23
Waning Crescent
Oct 28
New
Nov 4
First Quarter
Nov 12
Full
Nov 20
Last Quarter

Hourly Weather History & Observations

Time (ChST) Temp. Heat Index Dew Point Humidity Pressure Visibility Wind Dir Wind Speed Gust Speed Precip Events Conditions
12:54 AM 78.1 °F - 75.0 °F 90% 29.79 in 10.0 mi SE 4.6 mph - N/A   Clear
1:54 AM 78.1 °F - 73.9 °F 87% 29.78 in 10.0 mi SSE 3.5 mph - N/A   Clear
2:54 AM 78.1 °F - 73.9 °F 87% 29.78 in 10.0 mi SE 3.5 mph - N/A   Clear
3:54 AM 79.0 °F - 73.9 °F 84% 29.77 in 10.0 mi SE 3.5 mph - N/A   Partly Cloudy
4:54 AM 79.0 °F - 73.9 °F 84% 29.78 in 10.0 mi SE 3.5 mph - N/A   Clear
5:54 AM 78.1 °F - 73.9 °F 87% 29.81 in 10.0 mi ESE 3.5 mph - N/A   Scattered Clouds
6:54 AM 80.1 °F 85.1 °F 75.0 °F 85% 29.83 in 10.0 mi East 3.5 mph - N/A   Partly Cloudy
7:54 AM 82.9 °F 90.2 °F 75.0 °F 77% 29.86 in 10.0 mi ESE 5.8 mph - N/A   Scattered Clouds
8:54 AM 84.9 °F 93.3 °F 75.0 °F 72% 29.87 in 10.0 mi ESE 6.9 mph - N/A   Partly Cloudy
9:54 AM 84.9 °F 93.3 °F 75.0 °F 72% 29.87 in 10.0 mi ESE 9.2 mph - N/A   Partly Cloudy
10:54 AM 84.9 °F 93.3 °F 75.0 °F 72% 29.86 in 10.0 mi Variable 6.9 mph - N/A   Partly Cloudy
11:54 AM 86.0 °F 96.0 °F 75.9 °F 72% 29.83 in 10.0 mi SE 8.1 mph - N/A   Scattered Clouds
12:54 PM 86.0 °F 95.1 °F 75.0 °F 70% 29.81 in 10.0 mi SE 6.9 mph - N/A   Partly Cloudy
1:54 PM 87.1 °F 95.4 °F 73.9 °F 65% 29.80 in 10.0 mi Variable 6.9 mph - N/A   Clear
2:54 PM 87.1 °F 96.3 °F 75.0 °F 67% 29.78 in 10.0 mi ESE 6.9 mph - N/A   Clear
3:54 PM 84.9 °F 94.1 °F 75.9 °F 74% 29.80 in 10.0 mi SE 6.9 mph - N/A   Partly Cloudy
4:54 PM 84.9 °F 94.1 °F 75.9 °F 74% 29.81 in 10.0 mi East 6.9 mph - N/A   Clear
5:54 PM 82.9 °F 90.8 °F 75.9 °F 79% 29.83 in 10.0 mi East 5.8 mph - N/A   Clear
6:54 PM 82.9 °F 90.8 °F 75.9 °F 79% 29.85 in 10.0 mi East 5.8 mph - N/A   Clear
7:54 PM 82.0 °F 89.4 °F 75.9 °F 82% 29.87 in 10.0 mi East 3.5 mph - N/A   Clear
9:54 PM 81.0 °F 87.3 °F 75.9 °F 85% 29.88 in 10.0 mi East 4.6 mph - 0.00 in   Clear
10:54 PM 81.0 °F 86.7 °F 75.0 °F 82% 29.86 in 10.0 mi East 4.6 mph - N/A   Clear
11:54 PM 81.0 °F 86.7 °F 75.0 °F 82% 29.85 in 10.0 mi ENE 5.8 mph - N/A   Clear